Vorticity
1 4 8 10 8 6 3 9 8 11 13 12 13 10 8 11 10 15 15 13 11 13 12 9 8 7 7 10 10 9 8 9 9 2 8 7 6 13 10 3 4 17 6
2 4 8 11 8 8 4 8 11 8 7 9 7 4 6 4 4 6 7 8 8 19 12 12 13 13 14 14 13 11 8 7 7 9 5 6 4 10 4 13 3 6 6
7 8 11 11 10 7 7 10 8 10 8 6 9 7 5 7 10 12 14 12 10 8 11 9 4 32 23 15 12 16 19 17 12 5 22 25 15 11 -5 35 21 18 20
13 15 10 9 8 8 11 9 8 10 11 4 7 7 9 9 8 10 11 11 10 9 10 9 10 11 15 5 11 12 18 11 13 4 2 1 6 6 1 -5 3 10 8
6 6 5 6 12 12 9 10 13 6 11 13 10 9 8 7 7 6 6 4 4 4 5 4 5 5 6 7 6 6 6 6 6 6 6 9 11 10 11 11 12 11 3
4 7 4 10 9 15 6 12 5 7 7 9 10 11 6 7 5 4 2 1 1 2 2 3 5 6 8 11 9 9 8 7 7 8 9 12 12 11 9 7 7 9 10
5 8 8 7 12 11 4 12 8 9 10 8 5 6 6 3 2 1 1 3 2 4 5 5 5 4 5 4 7 9 8 6 4 5 4 6 10 11 12 10 11 11 9
7 14 12 12 10 11 11 5 8 8 10 10 11 10 8 7 5 5 4 3 3 5 5 6 7 9 10 8 10 7 6 8 6 6 6 11 11 12 14 12 9 8 9
-1 5 9 9 9 10 11 8 6 6 7 8 10 10 8 9 10 12 11 10 9 9 8 8 10 9 6 12 14 9 10 7 8 7 13 11 12 12 12 14 13 14 17
4 5 7 4 9 9 9 12 11 10 8 6 8 11 11 10 9 7 8 9 11 6 9 10 10 5 4 8 1 13 18 7 12 11 15 13 13 12 13 15 13 12 12
8 11 4 11 5 4 10 10 13 23 24 19 11 6 4 8 7 10 8 14 8 11 12 7 9 10 13 11 15 3 10 10 11 14 13 13 16 14 14 13 12 10 9
14 1 28 15 12 11 10 10 8 5 2 -1 0 11 6 -1 5 5 2 9 7 10 11 8 10 12 9 4 17 -2 16 13 12 11 13 13 14 11 11 10 8 7 8
1 10 18 15 11 7 6 4 2 3 5 9 6 6 9 7 7 5 14 7 16 1 8 11 8 6 7 5 9 12 13 9 10 12 12 11 11 12 11 7 7 9 8
8 6 5 5 6 8 3 2 6 8 11 15 12 8 4 6 2 8 8 10 8 15 10 10 10 10 12 13 14 15 14 12 10 11 14 12 11 11 7 8 7 1 7
11 5 4 5 5 3 4 6 13 12 0 8 7 7 8 9 10 10 12 13 13 11 11 12 14 15 13 14 15 14 11 12 12 12 12 11 12 9 9 8 -3 3 23
19 1 5 2 1 4 4 11 5 5 4 8 7 10 12 12 12 12 13 13 14 14 13 13 11 13 14 13 14 11 11 10 10 11 11 11 11 11 7 2 9 4 -2
6 6 6 4 7 4 12 7 8 5 5 11 12 14 13 11 10 9 9 12 12 12 10 12 11 13 13 13 13 12 11 9 8 9 10 10 9 13 -5 17 19 6 8
8 10 9 7 3 5 7 7 6 5 11 9 13 9 9 9 10 12 13 9 9 14 11 10 9 10 10 11 10 9 9 13 13 8 14 11 11 1 6 9 4 7 10
13 9 6 7 5 7 7 5 7 12 8 12 13 11 11 10 9 11 10 9 11 11 11 11 12 14 12 12 14 10 16 15 14 4 8 2 12 24 15 8 6 9 9
7 4 -2 8 6 4 7 10 10 12 10 13 9 12 14 13 10 10 13 13 12 12 11 11 12 12 13 14 15 17 15 7 15 18 18 36 15 10 8 8 6 9 8
12 16 8 3 7 10 10 11 12 9 19 15 11 15 18 21 15 11 12 15 17 19 16 14 16 17 9 17 19 18 21 13 26 7 13 8 11 13 6 3 9 8 8
4 3 5 11 9 11 10 10 16 14 14 20 16 13 13 10 11 16 18 14 11 12 16 14 13 11 19 20 26 26 13 20 6 11 9 9 10 4 4 11 8 8 9
5 8 7 12 14 11 18 15 15 18 14 11 13 1 2 13 15 12 12 14 18 15 13 13 13 13 10 13 13 10 4 5 12 12 7 4 10 10 9 10 10 10 10
14 17 15 12 15 15 13 15 15 13 14 13 10 12 11 18 9 8 4 -1 7 9 7 7 5 5 4 4 3 3 3 4 5 7 7 7 8 10 10 12 12 12 11
14 15 12 15 14 14 15 12 13 9 8 5 9 15 11 9 8 6 4 3 5 10 11 12 11 10 8 9 8 8 9 8 9 8 8 9 10 10 12 11 13 13 13
7 12 13 10 10 12 14 12 9 1 6 8 9 10 8 8 8 3 8 7 7 9 12 13 12 13 12 14 13 15 17 14 16 15 16 17 19 17 16 18 16 14 13
Height
5871 5872 5870 5868 5867 5867 5865 5863 5862 5861 5860 5856 5855 5854 5853 5851 5850 5847 5845 5843 5842 5841 5841 5842 5842 5843 5844 5845 5846 5848 5849 5849 5849 5849 5849 5848 5848 5846 5844 5843 5841 5840 5837
5869 5869 5867 5866 5866 5866 5864 5863 5862 5861 5858 5856 5856 5854 5852 5850 5849 5847 5845 5843 5842 5841 5841 5842 5842 5842 5842 5842 5842 5843 5843 5843 5844 5844 5842 5842 5841 5841 5839 5838 5836 5834 5831
5867 5866 5866 5864 5865 5865 5864 5863 5861 5860 5857 5858 5856 5854 5852 5849 5848 5847 5845 5844 5842 5841 5841 5841 5841 5839 5839 5840 5840 5839 5839 5838 5838 5837 5835 5834 5833 5834 5833 5829 5827 5826 5824
5865 5866 5865 5864 5865 5864 5863 5861 5860 5858 5857 5857 5856 5854 5852 5850 5848 5847 5846 5844 5842 5842 5841 5841 5839 5838 5837 5837 5837 5836 5835 5835 5833 5832 5829 5827 5827 5826 5825 5823 5821 5819 5817
5866 5865 5862 5863 5864 5863 5861 5860 5858 5857 5856 5855 5853 5852 5851 5850 5848 5847 5846 5845 5844 5842 5841 5839 5838 5837 5836 5834 5833 5832 5831 5829 5827 5826 5824 5823 5822 5820 5818 5816 5814 5813 5811
5865 5864 5864 5864 5862 5861 5860 5858 5858 5856 5855 5853 5851 5850 5850 5849 5848 5847 5845 5844 5843 5841 5839 5837 5836 5834 5833 5831 5830 5828 5827 5825 5824 5823 5821 5819 5816 5814 5812 5810 5808 5806 5804
5864 5863 5863 5862 5860 5859 5859 5857 5856 5854 5853 5851 5850 5848 5848 5847 5845 5844 5843 5841 5840 5838 5836 5833 5831 5829 5828 5826 5824 5822 5821 5819 5818 5816 5814 5812 5810 5808 5805 5803 5800 5798 5796
5862 5862 5861 5860 5858 5857 5857 5855 5853 5852 5851 5849 5847 5846 5845 5844 5842 5841 5840 5838 5835 5833 5831 5829 5827 5825 5822 5820 5819 5817 5814 5812 5810 5808 5806 5803 5800 5798 5795 5793 5791 5789 5788
5861 5861 5859 5857 5855 5853 5853 5851 5849 5848 5847 5845 5845 5844 5842 5840 5839 5837 5835 5832 5830 5827 5825 5823 5821 5819 5817 5815 5812 5809 5807 5804 5801 5799 5796 5793 5791 5788 5786 5784 5783 5782 5779
5860 5858 5857 5854 5852 5850 5849 5847 5845 5844 5844 5843 5842 5840 5838 5835 5834 5832 5829 5827 5825 5822 5819 5815 5813 5811 5809 5808 5805 5801 5799 5796 5793 5791 5788 5785 5783 5780 5778 5775 5774 5773 5773
5856 5854 5852 5849 5848 5846 5845 5843 5841 5839 5839 5839 5838 5836 5834 5831 5828 5825 5823 5821 5817 5815 5811 5808 5805 5803 5801 5798 5797 5794 5791 5787 5784 5781 5778 5776 5773 5771 5769 5767 5766 5764 5765
5851 5848 5846 5845 5844 5843 5841 5839 5839 5837 5835 5834 5832 5829 5827 5825 5821 5818 5815 5813 5809 5806 5803 5800 5797 5794 5792 5790 5787 5784 5781 5778 5775 5772 5769 5767 5765 5762 5761 5760 5758 5756 5755
5846 5844 5842 5840 5840 5838 5836 5835 5834 5833 5830 5827 5824 5822 5818 5815 5812 5808 5805 5803 5799 5797 5794 5791 5788 5785 5782 5780 5777 5774 5771 5768 5765 5763 5761 5759 5757 5756 5754 5752 5750 5748 5747
5841 5840 5838 5837 5835 5833 5832 5830 5828 5826 5823 5820 5817 5814 5810 5806 5803 5800 5796 5793 5790 5787 5784 5781 5778 5776 5773 5770 5767 5764 5761 5758 5755 5753 5752 5750 5749 5748 5746 5744 5742 5740 5738
5835 5833 5832 5831 5829 5828 5826 5824 5821 5818 5815 5811 5808 5805 5801 5797 5793 5789 5786 5783 5779 5777 5774 5771 5768 5766 5763 5760 5756 5754 5751 5749 5746 5744 5743 5741 5741 5739 5737 5735 5733 5731 5729
5827 5826 5825 5824 5822 5820 5818 5816 5813 5810 5807 5803 5799 5795 5792 5787 5783 5780 5777 5773 5770 5767 5764 5761 5759 5755 5752 5749 5747 5744 5741 5738 5737 5735 5733 5731 5731 5729 5728 5725 5723 5721 5718
5818 5818 5817 5816 5814 5812 5810 5808 5805 5802 5798 5794 5790 5786 5782 5778 5775 5771 5768 5765 5761 5758 5754 5751 5748 5745 5742 5738 5736 5733 5731 5728 5727 5724 5723 5721 5720 5718 5717 5715 5713 5710 5708
5810 5809 5808 5806 5805 5803 5800 5798 5795 5792 5787 5784 5780 5776 5772 5769 5765 5762 5758 5754 5751 5747 5744 5740 5738 5734 5730 5727 5724 5722 5719 5717 5715 5713 5712 5710 5708 5707 5706 5705 5703 5700 5698
5801 5800 5799 5797 5795 5793 5791 5788 5785 5782 5780 5773 5769 5766 5762 5758 5754 5751 5747 5744 5740 5736 5733 5730 5726 5722 5719 5716 5713 5710 5707 5705 5703 5701 5700 5698 5697 5695 5694 5694 5693 5690 5687
5792 5791 5789 5787 5785 5782 5780 5777 5773 5769 5766 5764 5761 5755 5751 5748 5744 5740 5737 5733 5729 5725 5721 5718 5715 5711 5708 5704 5701 5698 5695 5692 5692 5689 5688 5686 5686 5685 5685 5683 5682 5680 5677
5783 5781 5779 5777 5775 5772 5769 5765 5761 5758 5755 5751 5747 5744 5741 5738 5734 5730 5726 5722 5717 5714 5710 5706 5703 5700 5697 5693 5689 5686 5684 5681 5679 5679 5677 5677 5676 5674 5674 5673 5671 5669 5666
5773 5771 5769 5768 5765 5761 5758 5754 5751 5747 5744 5741 5739 5734 5731 5728 5724 5720 5716 5712 5708 5704 5700 5697 5693 5691 5687 5684 5682 5679 5676 5674 5672 5671 5669 5667 5666 5665 5664 5662 5659 5657 5654
5763 5761 5759 5757 5753 5750 5747 5743 5741 5738 5735 5732 5730 5728 5724 5719 5714 5711 5707 5703 5700 5696 5693 5689 5686 5682 5678 5675 5673 5671 5669 5666 5662 5660 5659 5658 5655 5654 5652 5649 5647 5645 5642
5753 5751 5748 5747 5744 5740 5737 5735 5732 5729 5726 5722 5718 5715 5712 5708 5706 5703 5700 5697 5693 5689 5685 5681 5677 5673 5669 5666 5663 5660 5657 5653 5651 5648 5646 5645 5643 5640 5638 5636 5633 5631 5629
5743 5741 5738 5736 5733 5731 5728 5725 5722 5719 5716 5714 5710 5707 5703 5700 5696 5692 5689 5686 5682 5679 5674 5670 5666 5663 5659 5654 5649 5644 5642 5640 5638 5635 5632 5629 5627 5625 5623 5621 5619 5617 5615
5732 5730 5729 5726 5725 5722 5719 5716 5713 5710 5707 5703 5699 5695 5691 5686 5685 5682 5677 5673 5669 5664 5659 5654 5650 5646 5642 5639 5636 5636 5633 5627 5620 5617 5615 5614 5612 5610 5608 5606 5604 5602 5601